Regional Weather Roundup
Issued by NWS Newport/Morehead, NC

Current Version | Previous Version | Text Only | Print | Product List | Glossary On
Versions: 1 2 3 4 5 6 7 8 9 10 11 12 13 14 15 16 17 18 19 20 21 22 23 24 25 26 27 28 29 30 31 32 33 34 35 36 37 38 39 40 41 42 43 44 45 46 47 48 49 50
000 ASUS42 KMHX 292310 RWRMHX WEATHER ROUNDUP FOR EASTERN NORTH CAROLINA NATIONAL WEATHER SERVICE NEWPORT/MOREHEAD CITY NC 700 PM EDT FRI AUG 29 2014 NOTE: "FAIR" INDICATES FEW OR NO CLOUDS BELOW 12,000 FEET WITH NO SIGNIFICANT WEATHER AND/OR OBSTRUCTIONS TO VISIBILITY NCZ015>017-031-032-045>047-102-103-300000- NORTH COAST CITY SKY/WX TMP DP RH WIND PRES REMARKS EDENTON PTCLDY 76 67 72 E7 30.14F ELIZABETH CITY CLOUDY 76 65 68 NE9 30.16R KITTY HAWK CLOUDY 76 66 69 E7 30.14S MANTEO CLOUDY 76 66 71 E10G17 30.15S $$ NCZ045>047-081-094-103-104-300000- CENTRAL COAST CITY SKY/WX TMP DP RH WIND PRES REMARKS FRISCO PTCLDY 79 75 87 E12 30.12S SWANQUARTER N/A 77 N/A N/A NE3G10 30.09S $$ NCZ095-097-098-100-101-300000- SOUTHERN COAST CITY SKY/WX TMP DP RH WIND PRES REMARKS BEAUFORT MOCLDY 82 72 71 NE3 30.11S CEDAR ISLAND N/A 79 N/A N/A NE16 30.15F JACKSONVILLE PTCLDY 82 69 64 S6 30.09S NEWPORT NOT AVBL PINEY ISLAND CLOUDY 80 75 84 NE13 30.12S WILMINGTON CLEAR 83 69 62 SE7 30.09S $$ NCZ011>013-027>030-043-044-078>080-089-090>093-098-300000- COASTAL PLAIN CITY SKY/WX TMP DP RH WIND PRES REMARKS AHOSKIE CLOUDY 76 69 78 CALM 30.14S CLINTON MOCLDY 86 75 70 NE3 30.09R ELIZABETHTOWN CLEAR 88 69 53 SE3 30.08R GOLDSBORO CLEAR 82 79 92 NE12 30.09R GREENVILLE MOCLDY 79 72 78 E7 30.14R HAVELOCK PTCLDY 81 73 76 NE8 30.12S KENANSVILLE CLEAR 82 72 72 CALM 30.10S KINSTON PTCLDY 82 73 74 NE10 30.12S NEW BERN PTCLDY 82 72 71 E9 30.12S RICHLANDS MOCLDY 82 72 69 SW6 30.10R ROANOKE RAPIDS NOT AVBL ROCKY MOUNT CLOUDY 79 71 76 NE5 30.13S WASHINGTON MOCLDY 78 70 76 E5 30.13S WHITEVILLE CLEAR 85 65 52 SE5 30.08S $$ AMZ130-135-150-152-154-156-158-170-250-252-270-ANZ085-086-088-633-658-670-300000- MARINE OBSERVATIONS STATION/POSITION TIME TEMP WIND PRES WAVE SWELL AIR SEA DIR/SP/G HT/PER HT/PER (UTC) (F) (DEG/KT/KT) (MB) (FT/S) (FT/S) CHESAPEAKE LIGHT 2200 73 90/ 12/ 13 1021.9 BUOY 44014 2300 76 76 70/ 10/ 12 1021.1 3/ 8 3/ 8 DUCK 2300 76 78 70/ 13/ 14 1020.3 2E DUCK 2300 N/A 3/ 9 OREGON INLET 2300 76 79 50/ 10/ 14 1020.6 BUOY 44095 2300 77 N/A 4/ 8 2/14 20E OREGON INLET NOT AVBL HATTERAS CG 2300 80 82 100/ 9/ 14 1020.3 DIAMOND BUOY 2300 79 40/ 12/ 14 1019.7 3/ 8 3/ 8 CAPE LOOKOUT 2200 81 160/ 3/ 4 1019.7 BEAUFORT LAB 2300 82 82 140/ 2/ 2 1019.0 30 SE NEW RIVER 2300 82 83 170/ 6/ 8 1019.6 2/ 8 2/ 8 5 SE WRIGHTSVILL 2300 78 82 160/ 14/ 16 N/A BUOY 41002 2154 81 83 100/ 8/ 10 1020.2 4/ 9 3/ 9 BUOY 41004 2300 83 83 110/ 6/ 6 1018.1 3/ 9 3/ 9 $$

USA.gov is the U.S. government's official web portal to all federal, state and local government web resources and services.